EW5545 Weather Reports


Display with metric or nautical units.
time (UTC)temp
F
wind
direction
speed
MPH
gust
MPH
rain 1hr
in
rain 24hr
in
rain mn
in
humidity
%
barometer
mb
20260902120009 89 48 6.0 14.0 0.00 0.00 0.00 47 1016.9
20260902115516 89 50 7.0 15.0 0.00 0.00 0.00 48 1016.9
20260902115017 89 51 5.0 13.0 0.00 0.00 0.00 47 1016.9
20260902114517 89 41 7.0 15.0 0.00 0.00 0.00 45 1016.8
20260902113509 90 51 5.0 14.0 0.00 0.00 0.00 43 1016.8
20260902113017 90 43 7.0 12.0 0.00 0.00 0.00 42 1016.9
20260902112516 90 50 5.0 14.0 0.00 0.00 0.00 42 1016.9
20260902112017 90 35 5.0 15.0 0.00 0.00 0.00 43 1016.9
20260902111016 90 43 6.0 10.0 0.00 0.00 0.00 42 1017.0
20260902110509 91 39 7.0 12.0 0.00 0.00 0.00 42 1017.1
20260902110017 91 43 6.0 10.0 0.00 0.00 0.00 42 1017.1
20260902105509 90 40 6.0 9.0 0.00 0.00 0.00 43 1017.2
20260902105016 90 46 5.0 10.0 0.00 0.00 0.00 43 1017.1
20260902104017 90 39 8.0 18.0 0.00 0.00 0.00 44 1017.2
20260902103510 90 38 6.0 12.0 0.00 0.00 0.00 43 1017.1
20260902103017 91 47 5.0 10.0 0.00 0.00 0.00 43 1017.1
20260902102017 90 52 7.0 12.0 0.00 0.00 0.00 44 1017.3
20260902101516 91 29 5.0 8.0 0.00 0.00 0.00 43 1017.3
20260902101014 91 44 5.0 13.0 0.00 0.00 0.00 44 1017.3
20260902100516 91 52 4.0 8.0 0.00 0.00 0.00 43 1017.4
20260902100014 91 53 2.0 8.0 0.00 0.00 0.00 44 1017.4
20260902095516 90 69 3.0 7.0 0.00 0.00 0.00 45 1017.4
20260902095017 90 54 5.0 12.0 0.00 0.00 0.00 46 1017.5
20260902093510 91 42 5.0 9.0 0.00 0.00 0.00 44 1017.5
20260902093013 91 43 5.0 9.0 0.00 0.00 0.00 43 1017.5
20260902092510 91 48 3.0 9.0 0.00 0.00 0.00 43 1017.5
20260902092016 91 265 3.0 6.0 0.00 0.00 0.00 43 1017.5
20260902091516 91 48 5.0 9.0 0.00 0.00 0.00 43 1017.5
20260902091016 90 352 1.0 8.0 0.00 0.00 0.00 43 1017.5
20260902090513 90 44 3.0 8.0 0.00 0.00 0.00 43 1017.5
20260902090017 90 50 4.0 7.0 0.00 0.00 0.00 43 1017.5
20260902085509 90 58 3.0 8.0 0.00 0.00 0.00 42 1017.5
20260902085016 90 57 4.0 12.0 0.00 0.00 0.00 43 1017.5
20260902084515 90 56 2.0 9.0 0.00 0.00 0.00 43 1017.4
20260902084017 89 43 4.0 9.0 0.00 0.00 0.00 43 1017.4
20260902083516 89 262 2.0 8.0 0.00 0.00 0.00 43 1017.4
20260902083016 89 46 5.0 9.0 0.00 0.00 0.00 43 1017.4
20260902082509 89 45 2.0 6.0 0.00 0.00 0.00 43 1017.4
20260902082014 89 46 2.0 6.0 0.00 0.00 0.00 43 1017.4
20260902081516 88 52 3.0 8.0 0.00 0.00 0.00 44 1017.4
20260902081016 88 43 3.0 7.0 0.00 0.00 0.00 44 1017.4
20260902075016 89 31 1.0 5.0 0.00 0.00 0.00 44 1017.4
20260902074516 88 48 1.0 3.0 0.00 0.00 0.00 45 1017.4
20260902074016 88 49 2.0 6.0 0.00 0.00 0.00 45 1017.3
20260902072515 87 346 1.0 3.0 0.00 0.00 0.00 45 1017.3
20260902072016 87 277 0.0 3.0 0.00 0.00 0.00 45 1017.2
20260902071516 86 62 0.0 2.0 0.00 0.00 0.00 46 1017.2
20260902071016 86 277 1.0 3.0 0.00 0.00 0.00 45 1017.2
20260902070508 86 249 0.0 1.0 0.00 0.00 0.00 45 1017.2
20260902070017 86 249 0.0 3.0 0.00 0.00 0.00 45 1017.2
20260902065016 84 249 0.0 3.0 0.00 0.00 0.00 46 1017.3
20260902064017 83 249 0.0 2.0 0.00 0.00 0.00 50 1017.3
20260902063017 83 248 0.0 1.0 0.00 0.00 0.00 51 1017.2
20260902061516 82 247 0.0 1.0 0.00 0.00 0.00 52 1017.2
20260902061016 80 247 0.0 1.0 0.00 0.00 0.00 54 1017.2
20260902060516 79 247 0.0 1.0 0.00 0.00 0.00 55 1017.1
20260902060017 79 247 0.0 1.0 0.00 0.00 0.00 57 1017.1
20260902055518 78 247 0.0 1.0 0.00 0.00 0.00 58 1017.1
20260902055016 77 247 0.0 1.0 0.00 0.00 0.00 59 1017.1
20260902054520 76 247 0.0 1.0 0.00 0.00 0.00 60 1017.1
20260902054008 76 247 0.0 1.0 0.00 0.00 0.00 60 1017.1
20260902053516 75 247 0.0 1.0 0.00 0.00 0.00 61 1017.1
20260902053017 75 247 1.0 3.0 0.00 0.00 0.00 61 1017.1
20260902052507 74 247 1.0 3.0 0.00 0.00 0.00 62 1017.2
20260902052016 74 247 1.0 3.0 0.00 0.00 0.00 61 1017.2
20260902051517 74 247 1.0 3.0 0.00 0.00 0.00 61 1017.2
20260902051009 74 247 1.0 3.0 0.00 0.00 0.00 61 1017.1
20260902050508 74 247 1.0 3.0 0.00 0.00 0.00 61 1017.1
20260902045517 74 247 2.0 3.0 0.00 0.00 0.00 61 1017.0
20260902045016 73 247 0.0 2.0 0.00 0.00 0.00 61 1017.0
20260902044511 73 247 1.0 2.0 0.00 0.00 0.00 61 1017.0
20260902044016 73 247 1.0 2.0 0.00 0.00 0.00 60 1017.0
20260902043516 73 247 0.0 2.0 0.00 0.00 0.00 61 1017.0
20260902043017 73 247 0.0 0.0 0.00 0.00 0.00 61 1016.9
20260902042516 73 247 0.0 1.0 0.00 0.00 0.00 60 1016.8
20260902042017 73 247 0.0 1.0 0.00 0.00 0.00 61 1016.7
20260902041517 73 247 0.0 1.0 0.00 0.00 0.00 60 1016.6
20260902041016 73 247 0.0 1.0 0.00 0.00 0.00 61 1016.6
20260902040517 72 247 0.0 1.0 0.00 0.00 0.00 61 1016.6
20260902040017 72 247 1.0 1.0 0.00 0.00 0.00 60 1016.7
20260902035516 72 247 1.0 1.0 0.00 0.00 0.00 60 1016.5
20260902035016 72 247 0.0 1.0 0.00 0.00 0.00 61 1016.6
20260902034517 72 247 1.0 1.0 0.00 0.00 0.00 61 1016.6
20260902034016 73 247 1.0 1.0 0.00 0.00 0.00 59 1016.6
20260902033513 73 247 0.0 1.0 0.00 0.00 0.00 58 1016.6
20260902033009 73 247 0.0 1.0 0.00 0.00 0.00 59 1016.6
20260902032018 72 247 1.0 1.0 0.00 0.00 0.00 60 1016.6
20260902031516 72 247 0.0 1.0 0.00 0.00 0.00 61 1016.6
20260902031016 71 247 0.0 2.0 0.00 0.00 0.00 61 1016.6
20260902030515 71 247 0.0 2.0 0.00 0.00 0.00 60 1016.6
20260902030009 71 247 2.0 2.0 0.00 0.00 0.00 59 1016.6
20260902025513 71 247 0.0 1.0 0.00 0.00 0.00 60 1016.6
20260902025015 71 247 1.0 2.0 0.00 0.00 0.00 61 1016.6
20260902024515 71 247 1.0 2.0 0.00 0.00 0.00 60 1016.6
20260902024011 71 247 0.0 2.0 0.00 0.00 0.00 59 1016.7
20260902023017 72 247 0.0 1.0 0.00 0.00 0.00 59 1016.7
20260902022516 72 247 0.0 1.0 0.00 0.00 0.00 58 1016.7
20260902022016 72 247 1.0 1.0 0.00 0.00 0.00 57 1016.7
20260902021516 73 247 0.0 1.0 0.00 0.00 0.00 57 1016.7
20260902021014 73 247 0.0 1.0 0.00 0.00 0.00 57 1016.7
20260902020516 72 247 0.0 1.0 0.00 0.00 0.00 58 1016.7
20260902020016 72 247 0.0 1.0 0.00 0.00 0.00 58 1016.8
20260902015016 72 247 0.0 2.0 0.00 0.00 0.00 58 1016.8
20260902014016 72 247 2.0 2.0 0.00 0.00 0.00 58 1016.7
20260902013011 73 247 1.0 2.0 0.00 0.00 0.00 56 1016.9
20260902012507 73 247 0.0 1.0 0.00 0.00 0.00 56 1016.9
20260902012016 73 247 0.0 2.0 0.00 0.00 0.00 56 1017.0
20260902011510 73 247 1.0 2.0 0.00 0.00 0.00 56 1016.9
20260902011016 73 247 0.0 1.0 0.00 0.00 0.00 56 1017.0
20260902010515 74 247 0.0 0.0 0.00 0.00 0.00 56 1017.1
20260902010016 74 247 0.0 1.0 0.00 0.00 0.00 55 1017.0
20260902005017 75 247 0.0 1.0 0.00 0.00 0.00 54 1017.0
20260902004516 75 247 0.0 1.0 0.00 0.00 0.00 54 1017.1
20260902004016 75 247 1.0 2.0 0.00 0.00 0.00 53 1017.1
20260902003516 76 247 0.0 1.0 0.00 0.00 0.00 52 1017.1
20260902003016 76 247 1.0 1.0 0.00 0.00 0.00 51 1017.1
20260902002516 76 247 1.0 1.0 0.00 0.00 0.00 52 1017.1
20260902002014 76 247 1.0 1.0 0.00 0.00 0.00 52 1017.1
20260902001516 76 247 0.0 2.0 0.00 0.00 0.00 53 1017.1
20260902001016 76 247 1.0 2.0 0.00 0.00 0.00 53 1017.1
20260902000516 75 247 1.0 2.0 0.00 0.00 0.00 54 1017.1
20260902000016 75 247 1.0 2.0 0.00 0.00 0.00 55 1017.1
20260901235508 75 247 0.0 2.0 0.00 0.00 0.00 56 1017.1
20260901235016 75 247 1.0 2.0 0.00 0.00 0.00 55 1017.2
20260901234516 75 247 1.0 1.0 0.00 0.00 0.00 56 1017.1
20260901234017 76 247 1.0 2.0 0.00 0.00 0.00 55 1017.1
20260901233515 77 247 1.0 2.0 0.00 0.00 0.00 53 1017.1
20260901233016 77 247 1.0 3.0 0.00 0.00 0.00 53 1017.2
20260901232507 76 247 1.0 3.0 0.00 0.00 0.00 53 1017.2
20260901232015 77 247 1.0 2.0 0.00 0.00 0.00 53 1017.2
20260901231516 77 247 1.0 2.0 0.00 0.00 0.00 52 1017.2
20260901231010 77 247 1.0 2.0 0.00 0.00 0.00 52 1017.2
20260901230516 77 247 1.0 3.0 0.00 0.00 0.00 53 1017.2
20260901230010 77 247 1.0 3.0 0.00 0.00 0.00 54 1017.2
20260901225515 76 247 2.0 3.0 0.00 0.00 0.00 54 1017.1
20260901224516 76 247 0.0 2.0 0.00 0.00 0.00 56 1017.2
20260901224009 76 247 1.0 1.0 0.00 0.00 0.00 56 1017.1
20260901223509 76 247 1.0 2.0 0.00 0.00 0.00 56 1017.1
20260901223016 77 247 0.0 2.0 0.00 0.00 0.00 55 1017.2
20260901222508 77 247 1.0 2.0 0.00 0.00 0.00 54 1017.1
20260901221513 77 247 0.0 1.0 0.00 0.00 0.00 55 1017.1
20260901221015 77 247 1.0 2.0 0.00 0.00 0.00 55 1017.1
20260901220018 77 247 0.0 1.0 0.00 0.00 0.00 55 1017.1
20260901215515 78 246 0.0 3.0 0.00 0.00 0.00 55 1017.1
20260901215016 77 246 1.0 3.0 0.00 0.00 0.00 55 1017.1
20260901214515 77 246 1.0 3.0 0.00 0.00 0.00 55 1017.0
20260901214017 77 246 2.0 3.0 0.00 0.00 0.00 56 1017.0
20260901213515 76 246 0.0 2.0 0.00 0.00 0.00 58 1017.1
20260901213017 75 246 0.0 1.0 0.00 0.00 0.00 59 1017.0
20260901212517 75 246 0.0 1.0 0.00 0.00 0.00 60 1017.1
20260901211516 75 246 1.0 2.0 0.00 0.00 0.00 60 1017.0
20260901211016 75 246 0.0 0.0 0.00 0.00 0.00 60 1016.9
20260901210509 75 246 0.0 0.0 0.00 0.00 0.00 61 1017.0
20260901210016 76 246 0.0 0.0 0.00 0.00 0.00 61 1016.9
20260901205514 76 246 0.0 0.0 0.00 0.00 0.00 59 1017.0
20260901205017 77 246 0.0 1.0 0.00 0.00 0.00 59 1016.9
20260901204515 77 246 0.0 1.0 0.00 0.00 0.00 59 1016.9
20260901204018 78 246 0.0 1.0 0.00 0.00 0.00 59 1016.9
20260901203513 78 246 0.0 1.0 0.00 0.00 0.00 59 1016.9
20260901203017 78 246 0.0 1.0 0.00 0.00 0.00 59 1016.8
20260901202508 79 246 0.0 1.0 0.00 0.00 0.00 59 1016.8
20260901202016 79 246 0.0 1.0 0.00 0.00 0.00 59 1016.9
20260901201517 79 246 0.0 2.0 0.00 0.00 0.00 60 1016.9
20260901201008 79 246 1.0 2.0 0.00 0.00 0.00 61 1016.9
20260901200515 79 246 0.0 2.0 0.00 0.00 0.00 61 1016.9
20260901200016 79 246 1.0 3.0 0.00 0.00 0.00 62 1017.0
20260901195513 79 246 1.0 3.0 0.00 0.00 0.00 62 1017.0
20260901195013 79 246 2.0 3.0 0.00 0.00 0.00 63 1017.0
20260901194516 79 246 2.0 3.0 0.00 0.00 0.00 64 1017.0
20260901194016 78 241 1.0 3.0 0.00 0.00 0.00 64 1017.0
20260901193516 78 241 0.0 1.0 0.00 0.00 0.00 64 1016.9
20260901193017 78 241 0.0 1.0 0.00 0.00 0.00 63 1016.9
20260901192513 78 241 1.0 2.0 0.00 0.00 0.00 61 1017.0
20260901192014 78 241 0.0 1.0 0.00 0.00 0.00 62 1017.0
20260901191008 78 241 0.0 1.0 0.00 0.00 0.00 61 1016.8
20260901190515 79 241 0.0 1.0 0.00 0.00 0.00 60 1016.9
20260901190017 79 241 1.0 2.0 0.00 0.00 0.00 59 1016.9
20260901185515 80 241 0.0 1.0 0.00 0.00 0.00 60 1016.9
20260901185008 80 241 0.0 0.0 0.00 0.00 0.00 60 1016.9
20260901184516 80 241 0.0 1.0 0.00 0.00 0.00 60 1016.9
20260901184015 81 241 0.0 0.0 0.00 0.00 0.00 60 1016.9
20260901183017 81 56 1.0 2.0 0.00 0.00 0.00 58 1016.8
20260901182514 82 56 0.0 1.0 0.00 0.00 0.00 60 1016.7
20260901182016 82 56 1.0 3.0 0.00 0.00 0.00 60 1016.7
20260901181515 82 350 0.0 2.0 0.00 0.00 0.00 60 1016.6
20260901181016 82 41 2.0 3.0 0.00 0.00 0.00 59 1016.6
20260901180515 82 257 0.0 1.0 0.00 0.00 0.00 58 1016.6
20260901180018 83 268 1.0 3.0 0.00 0.00 0.00 57 1016.5
20260901175510 83 31 1.0 3.0 0.00 0.00 0.00 56 1016.5
20260901175016 83 45 1.0 3.0 0.00 0.00 0.00 54 1016.4
20260901174514 83 57 0.0 3.0 0.00 0.00 0.00 54 1016.3
20260901174008 83 53 1.0 5.0 0.00 0.00 0.00 55 1016.2
20260901173008 84 46 1.0 3.0 0.00 0.00 0.00 53 1015.9
20260901172515 84 43 1.0 5.0 0.00 0.00 0.00 52 1016.0
20260901171508 84 57 1.0 5.0 0.00 0.00 0.00 49 1016.0
20260901170510 85 43 2.0 7.0 0.00 0.00 0.00 50 1016.0
20260901170016 85 45 3.0 7.0 0.00 0.00 0.00 50 1015.9
20260901165516 85 53 4.0 8.0 0.00 0.00 0.00 51 1016.0
20260901165016 85 58 3.0 8.0 0.00 0.00 0.00 52 1016.0
20260901164016 86 49 2.0 7.0 0.00 0.00 0.00 50 1015.9
20260901163513 86 42 3.0 8.0 0.00 0.00 0.00 50 1016.0
20260901163017 86 49 5.0 9.0 0.00 0.00 0.00 49 1015.9
20260901162515 86 46 5.0 9.0 0.00 0.00 0.00 47 1015.9
20260901162016 86 50 3.0 9.0 0.00 0.00 0.00 49 1015.9
20260901161516 86 48 4.0 10.0 0.00 0.00 0.00 51 1015.9
20260901161015 87 47 5.0 9.0 0.00 0.00 0.00 52 1015.9
20260901160509 87 52 4.0 9.0 0.00 0.00 0.00 50 1016.0
20260901160016 87 49 5.0 10.0 0.00 0.00 0.00 48 1016.1
20260901155016 87 45 5.0 10.0 0.00 0.00 0.00 45 1016.0
20260901154515 87 48 6.0 13.0 0.00 0.00 0.00 44 1016.0
20260901153513 88 44 6.0 10.0 0.00 0.00 0.00 42 1016.0
20260901153008 88 46 3.0 10.0 0.00 0.00 0.00 45 1016.0
20260901152509 88 44 7.0 12.0 0.00 0.00 0.00 46 1016.0
20260901152008 88 49 5.0 9.0 0.00 0.00 0.00 43 1016.0
20260901151509 88 52 6.0 12.0 0.00 0.00 0.00 46 1016.0
20260901151010 88 41 6.0 12.0 0.00 0.00 0.00 46 1016.0
20260901150016 88 43 7.0 12.0 0.00 0.00 0.00 44 1016.0
20260901145513 88 49 6.0 10.0 0.00 0.00 0.00 46 1016.0
20260901145016 88 51 5.0 9.0 0.00 0.00 0.00 45 1015.9
20260901144511 88 54 6.0 12.0 0.00 0.00 0.00 44 1015.9
20260901144016 88 51 5.0 12.0 0.00 0.00 0.00 45 1015.9
20260901143508 88 46 7.0 15.0 0.00 0.00 0.00 43 1015.9
20260901143018 88 39 8.0 15.0 0.00 0.00 0.00 42 1015.8
20260901142508 88 39 7.0 12.0 0.00 0.00 0.00 42 1015.9
20260901142015 88 50 9.0 13.0 0.00 0.00 0.00 43 1015.9
20260901141513 88 45 5.0 12.0 0.00 0.00 0.00 45 1016.0
20260901141016 88 43 5.0 15.0 0.00 0.00 0.00 46 1015.9
20260901140513 88 42 5.0 14.0 0.00 0.00 0.00 45 1015.9
20260901140016 88 51 5.0 12.0 0.00 0.00 0.00 46 1016.0
20260901135515 88 37 8.0 13.0 0.00 0.00 0.00 43 1016.0
20260901135015 88 43 7.0 14.0 0.00 0.00 0.00 44 1015.9
20260901134516 88 42 6.0 10.0 0.00 0.00 0.00 51 1016.0
20260901134016 88 49 5.0 14.0 0.00 0.00 0.00 53 1016.0
20260901132514 88 44 7.0 14.0 0.00 0.00 0.00 54 1016.2
20260901132015 88 46 5.0 10.0 0.00 0.00 0.00 55 1016.2
20260901130508 89 51 5.0 17.0 0.00 0.00 0.00 52 1016.3
20260901130015 89 51 3.0 13.0 0.00 0.00 0.00 49 1016.3
20260901125513 89 50 5.0 13.0 0.00 0.00 0.00 52 1016.3
20260901125016 89 31 7.0 13.0 0.00 0.00 0.00 50 1016.4
20260901124516 89 47 7.0 15.0 0.00 0.00 0.00 51 1016.3
20260901124016 89 34 5.0 10.0 0.00 0.00 0.00 54 1016.4
20260901123016 89 46 5.0 13.0 0.00 0.00 0.00 55 1016.5
20260901122509 89 56 6.0 12.0 0.00 0.00 0.00 55 1016.6
20260901122010 89 43 6.0 12.0 0.00 0.00 0.00 52 1016.6
20260901121512 89 58 2.0 10.0 0.00 0.00 0.00 57 1016.6
20260901121016 88 52 7.0 14.0 0.00 0.00 0.00 56 1016.6
20260901120508 89 51 6.0 12.0 0.00 0.00 0.00 53 1016.6